MST,Max TemperatureF,Mean TemperatureF,Min TemperatureF,Max Dew PointF,MeanDew PointF,Min DewpointF,Max Humidity, Mean Humidity, Min Humidity, Max Sea Level PressureIn, Mean Sea Level PressureIn, Min Sea Level PressureIn, Max VisibilityMiles, Mean VisibilityMiles, Min VisibilityMiles, Max Wind SpeedMPH, Mean Wind SpeedMPH, Max Gust SpeedMPH,PrecipitationIn, CloudCover, Events, WindDirDegrees
2014-2-1,18,11,4,5,1,-2,76,62,47,30.34,30.20,29.98,10,10,10,26,12,32,0.00,3,,316
2014-2-2,36,16,-5,9,1,-10,79,53,26,30.29,30.21,30.11,10,10,8,20,6,24,0.00,0,,305
2014-2-3,19,11,2,12,6,-2,88,78,67,30.41,30.22,30.06,10,6,0,16,7,20,0.07,7,Fog-Snow,48
2014-2-4,7,3,-1,1,-3,-8,83,69,55,30.73,30.52,30.30,10,5,1,21,9,25,0.04,8,Snow,25
2014-2-5,6,-5,-17,-6,-13,-22,81,69,56,30.83,30.78,30.60,10,10,8,18,9,23,T,2,Snow,293
2014-2-6,3,-7,-17,-10,-17,-23,74,64,53,30.73,30.54,30.32,10,10,10,21,10,25,0.00,0,,286
2014-2-7,14,-4,-22,7,-7,-27,78,67,55,30.30,30.09,29.83,10,8,2,14,5,16,0.02,3,Snow,11
2014-2-8,17,7,-4,7,2,-7,86,70,53,30.40,30.13,29.88,10,9,2,18,8,22,0.01,7,Snow,310
2014-2-9,10,0,-10,0,-4,-14,83,73,63,30.52,30.44,30.29,10,10,10,8,5,10,0.00,3,,344
2014-2-10,16,2,-13,9,-2,-17,88,78,67,30.48,30.35,30.15,10,10,5,14,6,17,T,4,Snow,84
2014-2-11,43,18,-7,32,8,-11,87,70,53,30.25,30.02,29.86,10,6,0,38,8,48,0.01,7,Fog-Rain,292
2014-2-12,46,30,14,28,20,12,88,66,43,30.18,29.89,29.55,10,10,10,29,11,37,0.00,3,,181
2014-2-13,42,31,19,27,23,15,84,68,51,29.82,29.73,29.63,10,10,10,18,8,23,0.00,2,,15
2014-2-14,35,25,14,25,18,11,84,73,61,30.10,29.94,29.70,10,10,10,12,4,15,0.00,5,,112
2014-2-15,50,37,23,31,26,21,92,66,39,30.11,29.93,29.69,10,8,1,32,14,41,0.00,3,,7
2014-2-16,57,40,23,34,27,21,100,73,46,30.04,29.76,29.48,10,6,1,33,13,43,0.02,5,Snow,91
2014-2-17,56,43,29,32,22,15,96,58,20,29.97,29.79,29.61,10,10,2,21,11,25,0.00,0,,272
2014-2-18,50,36,22,28,22,18,75,52,29,29.97,29.79,29.58,10,10,10,40,14,48,0.00,1,,289
2014-2-19,61,41,21,32,25,17,82,53,24,29.86,29.62,29.41,10,10,10,38,10,46,T,2,,275
2014-2-20,36,28,19,22,16,11,77,56,35,29.86,29.79,29.70,10,9,2,44,19,54,T,2,Snow,306
2014-2-21,44,32,20,28,24,16,88,66,43,29.94,29.80,29.69,10,8,0,29,11,35,0.04,6,Fog-Snow,313
2014-2-22,27,23,18,21,17,14,88,75,62,30.29,30.09,29.91,10,10,5,16,6,21,T,7,Snow,357
2014-2-23,26,20,13,12,9,7,84,67,50,30.42,30.37,30.21,10,10,10,12,6,15,0.00,7,,16
2014-2-24,20,6,-9,13,7,-13,88,79,69,30.57,30.24,30.08,10,4,0,26,14,31,0.13,7,Fog-Snow,66
2014-2-25,15,2,-11,3,-5,-16,82,68,53,30.61,30.54,30.40,10,10,10,22,8,28,0.00,3,,305
2014-2-26,34,12,-10,16,2,-15,79,63,47,30.44,30.16,30.01,10,10,10,35,12,41,0.00,0,,293
2014-2-27,26,12,-3,15,5,-7,88,75,62,30.12,29.89,29.65,10,10,10,20,11,24,0.00,1,,90
2014-2-28,25,15,5,20,9,-2,84,69,54,30.38,29.96,29.62,10,6,1,33,17,43,0.03,8,Snow,340